User: anonymous   Login
Location: Plum
(40.5000°N, 79.7500°W)
Time: 03:36:43
(UTC-04:00)
Language:

MOZ.5/SAFIR/RUBIN 5/SL-8 - Orbit

View from above orbital plane
View from above orbital plane
View from above satellite
View from above satellite

Ground track
Ground track

The orbit data is extracted from the following two-line orbital elements,

1 28898U 05043G   17296.94654741 +.00000153 +00000-0 +40828-4 0  9997
2 28898 097.9455 081.2258 0020664 140.7527 219.5176 14.60214563261996
Epoch (UTC): 23 October 2017 22:43:01
Eccentricity: 0.0020664
inclination: 97.9455°
perigee height: 678 km
apogee height: 707 km
right ascension of ascending node: 81.2258°
argument of perigee: 140.7527°
revolutions per day: 14.60214563
mean anomaly at epoch: 219.5176°
orbit number at epoch: 26199

The dashed part of the orbit path shows where the satellite is in the earth's shadow,  

DLR